Regional Weather Roundup
Issued by NWS

Home | Current Version | Previous Version | Text Only | Print | Product List | Glossary On
Versions: 1 2 3 4 5 6 7 8 9 10 11 12 13 14 15 16 17 18 19 20 21 22 23 24 25 26 27 28 29 30 31 32 33 34 35 36 37 38 39 40 41 42 43 44 45 46 47 48 49 50
000
ASUS42 KKEY 251010
RWRKEY

FLORIDA REGIONAL WEATHER ROUNDUP FOR THE FLORIDA KEYS
NATIONAL WEATHER SERVICE KEY WEST FLORIDA
500 AM EST THU DEC 25 2014

...SOUTH FLORIDA AND THE KEYS...

CITY           SKY/WX    TMP DP  RH WIND       PRES   REMARKS
FORT MYERS     CLOUDY    67  63  87 NW7       30.04R
SW REGIONAL AP CLOUDY    66  62  87 NW3       30.05R
NAPLES         MOCLDY    67  63  87 NW7       30.05R
MIAMI          LGT RAIN  70  68  93 N6        30.05R FOG
WEST KENDALL   RAIN      70  68  93 N13       30.05R FOG
HOMESTEAD      HVY RAIN  72  70  94 NW8       30.03R FOG
MARATHON       CLOUDY    71  71 100 N10G20    30.03R
BOCA CHICA NAS LGT RAIN  69  64  84 N21       30.04R
KEY WEST INTL  LGT RAIN  68  66  93 N13G24    30.05R

...INTERNATIONAL WEATHER...

CITY           SKY/WX    TMP DP  RH WIND       PRES   REMARKS
NASSAU BAHAMAS PTCLDY    75  73  94 S5        30.06S
CANCUN MEXICO  CLOUDY    72  68  88 N9        30.06R
COZUMEL MEXICO   N/A    N/A N/A N/A MISG        N/A

ADJACENT COASTAL WATERS...

STATION/POSITION TIME  SKY/WX   TEMP    WIND        PRES    WAVE
                                AIR SEA DIR/SP/G            HT/PER
                 (UTC)          (F)     (DEG/KT/KT) (MB)    (FT/S)
PULASKI SHOAL LI 0900            72      10/ 14/ 16 1017.1R
SAND KEY         0936            68      10/ 20/ 24 1017.2R
SOMBRERO KEY     1000            71     360/ 19/ 20 1017.3R
LONG KEY         0900            78 76  230/ 10/ 12 1016.6R
MOLASSES REEF    1000            72 78  160/ 22/ 24 1016.1F
FOWEY ROCKS      NOT AVBL
Buoy 42080       NOT AVBL

$$


USA.gov is the U.S. government's official web portal to all federal, state and local government web resources and services.